This is the latest recevied weather packets stored in our database for station/object IT9ITI-10. If no packets are shown the sender has not sent any weather packets the latest 10 day(s).
| Time | Temp. | Humidity | Pressure | Rain* | Wind** | Luminosity | Snow |
|---|---|---|---|---|---|---|---|
| 1788437029 | 35° C | 30% | 937.3 hPa | - | - | - | - |
| 1788433429 | 35° C | 30% | 937.8 hPa | - | - | - | - |
| 1788429829 | 34.44° C | 30% | 938.3 hPa | - | - | - | - |
| 1788426229 | 34.44° C | 28% | 938.8 hPa | - | - | - | - |
| 1788422629 | 34.44° C | 27% | 938.7 hPa | - | - | - | - |
| 1788419029 | 33.89° C | 27% | 938.6 hPa | - | - | - | - |
| 1788415429 | 33.89° C | 28% | 938.8 hPa | - | - | - | - |
| 1788411829 | 33.89° C | 28% | 938.5 hPa | - | - | - | - |
| 1788408229 | 33.89° C | 27% | 938.3 hPa | - | - | - | - |
| 1788404629 | 33.89° C | 27% | 938.4 hPa | - | - | - | - |
| 1788401029 | 33.89° C | 27% | 938.7 hPa | - | - | - | - |
| 1788397429 | 33.89° C | 28% | 938.9 hPa | - | - | - | - |
| 1788393829 | 33.89° C | 30% | 939.4 hPa | - | - | - | - |
| 1788390229 | 34.44° C | 29% | 939.7 hPa | - | - | - | - |
| 1788386629 | 34.44° C | 30% | 939.9 hPa | - | - | - | - |
| 1788383029 | 34.44° C | 31% | 940 hPa | - | - | - | - |
| 1788379429 | 34.44° C | 31% | 940.1 hPa | - | - | - | - |
| 1788375829 | 34.44° C | 31% | 940.1 hPa | - | - | - | - |
| 1788372229 | 34.44° C | 29% | 939.5 hPa | - | - | - | - |
| 1788368629 | 35° C | 26% | 939.3 hPa | - | - | - | - |
| 1788365029 | 34.44° C | 33% | 939.1 hPa | - | - | - | - |
| 1788361429 | 34.44° C | 33% | 939.3 hPa | - | - | - | - |
| 1788357829 | 34.44° C | 34% | 939.2 hPa | - | - | - | - |
| 1788354229 | 34.44° C | 34% | 939.7 hPa | - | - | - | - |
| 1788350629 | 35° C | 34% | 940 hPa | - | - | - | - |
* Rain since midnight (hover to see other rain measurements)
** Current wind speed in m/s (hover to see current wind gust speed)